Find Yaogan 31 hao 04 zu 01 xing

NORAD ID: 47854 Int'l Des: 2021-020 Owner: ZLZB Country: CN Constellation: yaogan operational
LEO

リアルタイム位置

3D地球を読み込み中...

Yaogan 31 hao 04 zu 01 xingについて

説明を読み込み中...

次回通過

Passes for default location (London). Set your location on the main map for personalized predictions.

高度履歴

Loading altitude history...

軌道要素

1 47854U 21020A 26139.84175094 -.00000176 00000-0 -13229-3 0 9998
2 47854 63.4065 330.8348 0172535 0.4218 359.6923 13.45446428254651
Epoch: May 19, 2026 • Age: 5 hours

現在のステータス

高度 1116.0 km
速度 7.29 km/s
衛星直下点 -63.44°S, 18.98°W
打ち上げ日 Mar 13, 2021
運用期間 5.1 years
タイプ military

技術仕様

分類 Payload
質量 500.00 kg
乾燥質量 500.00 kg
総質量 500.00 kg
長さ 0.50 m
直径 0.50 m
スパン 1.00 m
形状 Box + 2 Pan
製造者 DFHZ
バスタイプ JB-8B
フェーズステータス In Orbit
所有者/国 ZLZB/CN

Most Searched